Flag for Germany Weather past 2 weeks in Minden, North Rhine-Westphalia, Germany

Now
54 °F

Passing clouds.


Feels Like: 49 °F
Forecast: 45 / 67 °F
Wind: 14 mph from Northeast

Location: Bueckeburg


UV Index: 3 (Moderate)

Visibility: N/A


Pressure: 29.95 "Hg

Humidity: 82%

Dew point: 48 °F

Location of MindenLocation

Historic Weather in Minden

°F

Minden temperature yesterday

Maximum temperature yesterday: 61 °F (at 5:20 PM)
Minimum temperature yesterday: 39 °F (at 5:20 AM)
Average temperature yesterday: 49 °F

Past Weeks' High & Low Weather Summary

 TemperatureHumidityPressure
High70 °F (Apr 7, 4:20 PM)100% (Apr 5, 2:20 AM)30.48 "Hg (Apr 5, 2:20 AM)
Low30 °F (Apr 16, 4:20 AM)31% (Apr 17, 6:20 PM)29.71 "Hg (Apr 8, 6:20 AM)
Average50 °F75%30.05 "Hg
* Reported Apr 5 12:20 AM — Apr 20 12:20 AM, Minden, Weather by CustomWeather, © 2014

Note: Actual official high and low records may vary slightly from our data, if they occured in-between our weather recording intervals... More about our weather records

Advertising

Historic Weather Conditions — Data for Previous 24 hours

 ConditionsComfort  
Time TempWeatherWind HumidityBarometerVisibility
12:20 AM
Apr 20
54 °FPassing clouds.14 mph82%29.95 "HgN/A
11:20 PM
Apr 19
52 °FPassing clouds.8 mph82%29.98 "HgN/A
10:20 PM55 °FPassing clouds.9 mph72%29.98 "HgN/A
9:20 PM57 °FPassing clouds.10 mph72%29.98 "HgN/A
8:20 PM59 °FScattered clouds.14 mph63%29.98 "HgN/A
7:20 PM59 °FPassing clouds.10 mph63%29.98 "HgN/A
6:20 PM61 °FPassing clouds.16 mph55%29.98 "HgN/A
5:20 PM61 °FPassing clouds.15 mph55%30.01 "HgN/A
4:20 PM59 °FPassing clouds.12 mph59%30.04 "HgN/A
3:20 PM57 °FPassing clouds.10 mph63%30.07 "HgN/A
2:20 PM54 °FPassing clouds.10 mph67%30.09 "HgN/A
1:20 PM54 °FPassing clouds.13 mph63%30.09 "HgN/A
12:20 PM54 °FPassing clouds.10 mph72%30.12 "HgN/A
11:20 AM50 °FPassing clouds.14 mph76%30.12 "HgN/A
10:20 AM48 °FPassing clouds.9 mph82%30.12 "Hg5 mi
9:20 AM46 °FFog.6 mph82%30.12 "Hg3 mi
8:20 AM43 °FFog.3 mph93%30.12 "Hg3 mi
7:20 AM41 °FFog.5 mph93%30.09 "Hg2 mi
6:58 AM39 °FFog.7 mph100%30.07 "Hg1 mi
6:20 AM41 °FFog.6 mph93%30.07 "Hg1 mi
5:45 AM41 °FPassing clouds.2 mph93%30.07 "Hg5 mi
5:20 AM39 °FFog.3 mph100%30.04 "Hg4 mi
4:20 AM41 °FPassing clouds.5 mph93%30.04 "Hg5 mi
3:20 AM41 °FPassing clouds.5 mph100%30.01 "HgN/A
2:20 AM43 °FPassing clouds.5 mph93%30.01 "HgN/A
1:20 AM43 °FPartly cloudy.3 mph93%29.98 "HgN/A
Weather by CustomWeather, © 2014

See weather overview